Location: Newark
(48.6461°N, 4.3644°W)
Time: 07:44:11
(UTC+00:00)

Altair - Pass Details

Date: 23 January 2021
Orbit: 1501 x 1682 km, 47.2° (Epoch: 24 February)

Event Time Altitude Azimuth Distance (km) Brightness Sun altitude
Exits shadow 05:26:02 - 215° (SW) 3,940 9.3 -24.8°
Reaches altitude 10° 05:26:13 10° 215° (SW) 3,891 9.3 -24.7°
Maximum altitude 05:35:36 48° 145° (SE) 2,104 8.4 -23.2°
Drops below altitude 10° 05:45:07 10° 76° (ENE) 3,948 10.6 -21.6°
Sets 05:48:26 0° 71° (ENE) 4,932 11.3 -21.1°
